Dewpoint
72 72 71 69 69 69 69 67 56 58 56 53 54 55 54 62 62 60 60 61 57 63 64 63 61 59 60 58 58 61 62 56 57 49 46 58 70 71 72 72 72 72 73 73 74 73 73 72 72 73 74 74 75 75 76 76 76 76 76 76 76 76 76 75 75 76 75 75 74 74 73 72 73 74 74 74 74 74 74 74 75 75 75 75 76 75 75 75 75 75 75 75 75 75 75 75 75
71 71 70 70 68 67 64 67 58 57 56 53 55 59 59 62 60 58 58 59 59 60 62 60 61 64 64 63 61 59 60 65 65 64 65 69 70 71 72 72 72 72 73 73 74 73 73 72 72 73 74 75 76 76 76 76 76 76 76 76 75 75 75 75 75 75 75 75 74 73 73 72 72 72 73 74 74 74 74 74 74 74 74 75 75 75 75 75 75 75 75 76 75 75 75 75 75
70 70 69 69 68 68 67 66 55 55 52 50 54 58 62 59 58 60 60 61 61 61 60 60 62 63 63 62 58 59 56 65 65 65 66 69 68 70 72 72 72 73 73 74 74 75 74 75 74 75 75 75 76 76 76 76 76 76 76 75 75 75 75 75 75 75 75 76 75 74 73 74 72 72 72 73 73 73 73 74 74 74 74 74 75 75 75 75 75 75 75 75 74 76 75 75 75
69 69 67 68 65 67 62 60 57 54 51 52 53 60 59 60 60 62 63 63 62 60 60 60 61 64 63 60 61 62 62 62 65 65 65 67 66 71 72 72 73 73 74 74 75 75 75 77 77 76 76 76 76 76 76 76 76 76 76 75 75 75 75 75 75 75 76 75 75 75 74 73 74 73 72 73 73 73 74 74 74 74 75 74 73 74 75 75 75 76 76 76 76 76 75 74 75
68 69 68 67 65 61 60 59 57 57 52 54 53 60 60 61 61 62 63 63 60 61 61 60 60 63 64 63 61 60 61 65 65 66 66 69 71 71 72 72 73 73 73 74 75 75 75 76 76 76 76 75 75 75 76 76 76 76 76 76 76 76 75 75 74 75 75 75 75 75 74 73 74 73 73 72 73 73 74 74 74 74 75 74 74 74 74 74 75 75 75 75 76 76 75 75 75
70 69 72 70 64 68 63 58 57 56 58 61 58 59 62 63 62 63 64 64 65 62 60 60 59 60 61 62 63 63 63 60 65 65 67 70 71 71 72 73 73 73 73 74 74 75 75 76 76 77 76 75 75 75 75 75 75 76 76 76 75 76 75 75 74 75 75 75 75 75 75 74 75 73 73 72 72 73 73 74 74 74 74 75 74 75 75 75 75 75 75 75 76 76 76 75 75
67 67 68 68 67 66 57 56 56 57 60 63 60 61 63 64 63 64 63 58 60 60 63 61 61 60 60 62 63 64 67 66 64 66 69 70 71 72 72 72 72 73 73 74 74 75 75 76 76 77 75 75 75 75 75 76 76 75 76 75 75 75 75 75 75 75 75 75 75 75 74 74 74 74 74 73 73 73 73 74 74 74 74 75 75 75 75 75 74 74 75 75 76 76 76 76 75
71 67 66 61 60 60 56 57 58 60 60 63 63 62 64 64 66 64 61 57 57 58 60 60 60 61 61 64 61 65 66 67 68 70 70 71 71 71 72 72 72 73 73 74 74 75 77 77 76 76 75 75 75 75 76 76 75 76 76 75 75 75 75 75 75 75 75 75 75 75 74 74 74 74 74 74 74 74 74 74 74 75 75 75 75 75 74 74 73 74 75 75 75 75 75 75 75
69 67 69 61 57 59 57 56 58 62 61 63 63 66 66 66 65 64 61 62 57 59 59 60 60 58 62 63 63 65 66 68 69 71 70 71 71 71 71 72 72 72 73 74 74 75 76 77 76 75 75 75 75 76 76 76 74 75 75 75 75 75 75 75 75 74 74 74 74 74 74 74 75 74 75 75 74 75 74 75 75 75 75 75 74 74 74 74 74 74 75 75 75 75 75 75 75
67 65 61 59 59 55 57 56 56 60 61 63 63 64 65 66 64 65 63 58 59 60 61 63 63 61 62 62 63 64 66 69 69 69 70 70 70 70 71 72 72 72 73 74 74 75 76 77 76 75 75 75 75 76 75 76 75 75 75 75 75 75 75 75 74 74 74 74 74 74 74 74 74 74 74 75 74 75 74 74 74 74 75 75 75 74 75 74 74 75 75 76 76 75 75 76 75
62 67 67 59 55 55 54 55 58 60 61 64 64 65 64 65 65 64 63 60 61 61 61 62 61 61 62 63 63 67 68 68 68 68 70 70 70 70 71 72 72 73 73 74 75 76 75 75 75 75 75 75 76 75 75 75 75 75 75 75 75 75 75 75 74 74 74 75 75 75 75 75 74 74 75 75 75 74 74 75 74 74 74 74 74 74 74 74 74 75 76 76 76 76 76 75 75
59 62 62 55 55 54 56 57 58 60 62 64 63 64 65 66 65 61 60 60 61 60 60 61 61 63 61 62 63 66 67 67 68 69 69 69 70 71 71 72 72 73 73 74 75 75 75 75 75 75 75 76 76 75 75 75 76 75 75 75 75 75 74 73 74 75 75 74 74 75 75 74 74 74 75 75 74 74 74 74 74 74 73 74 74 75 74 75 75 75 76 76 76 75 75 75 75
60 62 60 58 57 57 59 57 58 60 60 61 63 66 68 65 64 63 61 61 61 60 60 64 62 61 60 62 65 66 66 67 68 69 69 69 70 71 72 72 72 73 74 74 74 75 75 75 75 75 75 77 76 75 75 75 75 75 75 74 74 74 74 74 74 74 74 74 74 74 74 74 74 75 75 75 74 74 74 74 74 73 74 74 75 74 74 75 75 75 76 75 75 75 75 74 75
61 63 60 56 61 58 58 58 59 58 59 63 65 66 66 65 66 65 61 60 61 61 62 62 62 62 62 63 64 64 66 67 68 68 69 70 71 71 72 72 73 73 73 74 75 75 75 75 75 75 75 75 75 76 75 75 75 75 74 74 74 74 74 74 75 74 74 74 74 74 74 74 74 75 74 74 75 74 74 74 74 74 74 73 74 74 74 75 75 75 75 74 74 74 74 75 74
61 66 62 59 58 59 60 57 57 58 58 63 64 65 65 67 67 66 63 59 61 64 62 63 62 59 59 60 62 64 66 67 68 68 69 69 70 71 71 72 72 73 73 74 75 75 74 74 75 75 75 74 74 74 74 75 74 75 75 74 74 74 74 75 75 74 74 73 74 74 74 74 75 75 74 74 74 74 74 74 74 74 74 74 74 74 75 75 74 75 76 74 74 75 74 74 74
64 65 63 57 56 56 59 59 60 59 59 63 65 65 64 65 68 66 67 66 61 63 62 60 62 60 60 61 62 64 66 67 68 68 69 69 69 70 70 71 72 73 73 74 74 74 74 75 75 74 74 74 74 74 74 74 75 74 75 74 74 74 74 74 74 73 74 74 74 74 74 75 74 74 74 74 74 74 74 74 74 74 74 74 74 74 74 75 75 75 76 74 74 74 74 73 74
70 65 57 55 54 58 59 59 60 57 62 64 66 64 61 62 68 68 71 69 60 60 62 61 60 63 62 62 64 65 66 68 68 68 68 68 68 68 69 70 71 72 73 74 74 74 74 74 74 74 74 74 74 74 74 74 74 75 74 74 74 74 74 73 74 74 74 74 75 75 75 73 74 74 74 74 75 74 74 74 74 74 74 74 74 74 75 75 76 76 76 75 74 73 74 74 73
65 60 56 55 57 59 61 60 62 64 62 63 64 64 63 63 65 67 68 62 62 60 60 61 62 62 63 64 65 66 66 66 67 67 67 66 67 67 68 69 70 71 72 73 73 73 74 74 74 74 74 74 74 74 74 73 75 73 74 74 74 74 74 75 76 76 76 75 75 75 74 75 74 74 74 75 75 75 74 74 74 74 74 74 74 75 76 76 76 76 75 74 75 74 76 74 74
61 58 57 55 59 61 63 64 64 63 63 64 64 66 64 62 64 66 61 59 59 59 60 60 61 62 64 65 65 65 66 66 66 66 66 66 66 66 67 68 69 71 71 72 72 73 73 74 74 74 74 74 74 74 74 75 73 73 74 74 75 75 75 75 74 75 73 74 74 74 74 73 73 74 74 75 75 75 75 74 75 75 75 75 75 76 76 75 75 75 75 74 74 76 73 73 73
61 58 56 58 63 62 63 64 64 66 64 63 64 66 64 65 66 69 59 58 59 58 59 60 61 62 63 64 65 65 65 66 66 66 66 66 66 66 67 67 68 70 71 71 72 73 73 74 74 74 74 74 74 73 73 73 73 73 73 74 74 74 73 74 73 73 73 73 73 74 73 74 73 74 74 75 75 74 75 75 74 75 75 75 76 75 76 75 75 75 75 77 76 75 73 73 73
62 59 58 59 64 64 65 64 67 65 64 63 64 65 63 65 67 66 59 57 58 59 60 61 61 62 63 64 65 64 65 65 65 66 66 66 66 66 66 67 68 69 71 71 73 73 73 74 74 74 74 74 74 74 73 72 72 73 73 73 73 73 73 73 73 73 73 73 73 73 73 74 73 73 73 73 73 73 73 73 73 73 74 74 76 73 74 75 75 73 75 75 73 74 72 72 73
61 58 63 62 64 63 66 67 67 65 65 64 64 62 62 67 66 64 58 56 56 58 60 62 63 63 63 64 64 64 65 65 65 65 65 65 65 66 67 67 68 69 71 71 72 73 73 74 74 74 74 74 73 73 72 74 73 72 72 73 73 73 73 73 73 73 73 73 73 74 74 73 73 72 72 72 72 72 72 72 72 73 73 73 75 72 72 73 72 73 73 73 73 74 73 72 73
57 62 59 61 63 65 67 66 66 66 65 64 62 63 65 63 62 64 61 57 60 60 61 63 63 63 64 64 64 64 64 64 65 65 65 65 65 66 66 67 68 69 71 71 72 72 73 73 74 74 73 74 73 73 73 73 72 72 72 73 72 72 72 72 72 73 73 73 73 74 73 72 72 72 72 72 72 72 72 72 72 72 72 72 74 72 72 73 73 72 72 72 72 73 73 72 72
58 57 61 65 63 64 66 65 67 66 64 63 65 66 63 61 59 63 62 65 68 62 63 63 63 63 64 63 63 63 64 64 64 65 65 65 66 66 66 67 68 70 71 71 72 72 73 73 73 73 73 73 73 73 73 72 72 73 72 74 73 74 73 72 73 73 74 73 74 75 74 72 71 71 71 71 71 71 72 72 72 72 72 72 73 73 72 72 72 72 72 72 72 72 73 72 71
57 59 61 64 65 66 66 65 66 67 66 67 67 64 63 61 60 64 62 67 63 62 62 63 63 63 63 63 63 63 64 64 64 64 64 65 66 66 67 68 69 70 70 71 72 73 73 73 73 73 73 73 73 73 72 72 73 73 73 73 72 75 72 73 74 73 72 74 74 74 74 72 71 71 71 71 71 71 71 72 72 72 72 72 73 72 72 72 72 72 72 72 72 72 72 72 71
60 63 62 63 64 66 66 65 66 66 66 66 64 65 65 65 65 63 65 66 61 62 62 62 62 62 62 62 63 63 63 63 63 63 64 65 66 67 67 68 69 69 70 71 72 72 73 73 73 73 73 73 73 73 73 73 73 73 73 72 72 74 72 73 75 73 72 73 73 73 74 72 71 71 71 71 71 71 71 72 72 72 72 73 73 72 72 72 71 72 72 72 72 71 71 71 72
61 62 63 64 65 66 66 64 65 66 65 66 64 63 63 64 65 59 66 61 61 62 61 62 62 62 62 62 63 63 63 63 63 64 65 66 66 67 67 68 69 69 71 71 72 72 73 73 73 74 74 74 74 73 73 73 73 73 73 72 73 73 73 74 74 72 72 73 73 73 73 73 72 72 72 72 72 72 71 71 72 72 72 72 73 73 73 73 72 72 72 72 72 72 71 70 72
62 62 62 63 64 65 66 66 65 66 65 66 65 62 63 64 63 60 62 60 62 61 61 61 61 61 61 62 62 63 63 63 63 64 64 65 66 67 67 68 69 70 71 71 72 73 73 73 73 74 74 74 74 74 74 73 73 73 73 73 74 73 74 74 73 72 73 72 73 73 73 73 74 72 72 72 73 71 72 72 72 72 71 72 73 73 73 74 75 74 74 74 74 71 70 71 70
62 61 60 61 63 63 65 64 64 64 64 66 65 61 60 61 60 63 60 59 61 61 60 60 60 61 61 61 62 62 62 62 62 64 65 66 66 67 68 69 69 70 71 71 72 73 72 72 73 74 74 74 74 73 73 72 72 73 73 73 73 74 75 74 72 72 72 72 73 73 73 73 74 73 72 73 75 72 72 72 71 73 72 72 73 74 74 73 73 73 72 74 73 72 71 70 71
60 60 60 60 60 61 64 65 65 64 65 66 65 53 57 61 63 67 61 59 59 59 59 59 59 60 60 61 61 61 62 62 62 63 65 66 66 67 68 69 70 70 70 71 71 72 72 72 73 73 74 74 74 74 73 72 72 73 74 73 74 74 73 73 73 72 72 73 73 72 73 73 74 73 73 73 73 72 72 71 71 71 71 72 74 74 73 73 73 72 73 71 74 73 70 70 69
57 60 59 56 56 57 63 63 64 62 65 65 66 55 57 61 63 64 61 59 57 58 58 58 58 59 59 60 60 60 60 61 61 63 64 65 66 67 68 69 70 70 71 70 71 71 72 72 72 72 74 73 74 74 73 72 73 73 73 73 73 73 73 72 72 72 73 72 72 72 73 73 74 73 74 74 74 72 72 71 71 71 72 74 74 74 72 72 72 72 74 72 71 71 71 72 69
58 54 53 56 54 57 62 63 63 61 63 65 62 55 56 60 62 64 63 58 58 57 57 57 57 58 59 59 59 59 59 60 61 63 64 65 66 67 68 68 69 70 70 70 71 71 71 71 72 72 73 73 72 73 73 73 73 73 73 74 73 73 73 72 72 72 73 73 73 72 72 73 74 73 74 74 74 72 72 71 71 72 73 73 73 73 74 72 73 73 72 73 70 70 71 69 69
54 52 53 54 55 57 59 62 64 64 64 65 62 55 59 60 63 66 65 59 58 56 56 56 57 58 58 58 58 57 58 58 60 62 63 64 66 67 68 68 69 69 69 70 70 70 70 71 73 72 72 72 72 73 73 73 72 72 72 73 73 72 72 72 72 73 73 73 73 72 73 74 74 74 74 75 74 73 72 72 72 73 74 73 72 73 72 74 73 73 71 74 72 71 70 68 69
50 51 53 55 53 56 57 62 64 64 63 61 63 59 58 60 63 65 65 60 58 56 56 56 56 57 57 57 57 56 58 57 59 61 62 64 65 66 67 70 69 69 69 69 70 70 70 71 72 71 72 72 72 72 72 71 72 72 72 72 73 72 72 72 73 73 73 73 73 73 73 74 74 74 74 75 74 74 73 72 73 73 74 73 72 72 72 73 73 72 70 73 75 71 69 69 69
48 47 52 54 55 55 57 58 61 63 63 61 61 59 60 60 63 64 65 65 58 56 56 56 56 56 57 57 57 56 56 55 58 59 62 64 64 66 67 68 68 69 69 69 70 70 70 71 72 72 71 71 72 72 71 71 72 72 72 72 71 72 72 72 73 73 73 74 74 74 74 75 75 74 75 75 73 74 73 73 73 74 74 72 71 71 71 74 74 73 72 73 74 73 70 71 70
48 48 51 54 54 56 55 59 63 62 61 60 60 57 59 60 62 64 66 65 56 56 56 56 56 56 56 56 56 55 55 54 58 59 62 63 64 65 66 68 68 68 69 69 70 70 70 71 71 72 71 71 72 72 71 71 71 71 71 71 71 72 71 72 72 72 73 73 75 74 74 74 75 75 74 75 73 74 73 73 73 74 73 72 71 70 70 70 71 71 71 75 74 73 73 72 72
30 45 52 53 54 55 59 61 62 64 60 59 59 58 60 60 61 62 65 64 56 59 56 56 56 56 56 55 55 54 53 53 57 58 61 63 63 65 66 67 68 68 68 69 69 70 70 71 71 71 71 71 72 71 70 70 69 70 70 70 70 71 71 71 72 72 72 73 75 75 75 75 75 75 75 75 74 77 74 73 73 74 73 72 72 70 70 72 73 73 74 74 74 71 71 72 71
30 49 52 53 53 53 58 60 61 63 59 58 60 58 59 59 62 63 65 65 58 60 57 55 55 56 55 55 54 53 52 54 56 57 61 62 63 65 66 67 68 67 68 68 68 69 70 71 70 70 71 71 71 71 70 70 70 70 70 70 70 70 71 71 71 72 72 73 74 75 75 75 75 75 76 75 75 74 74 73 73 74 73 73 72 74 72 76 74 74 74 71 72 70 69 73 72
29 33 52 52 54 59 60 60 60 60 59 58 59 58 58 60 61 62 63 63 64 64 64 55 54 55 55 53 53 52 52 54 55 57 60 62 63 65 66 66 66 66 67 68 68 69 70 70 70 70 71 71 71 71 70 70 70 71 71 71 71 70 72 71 71 72 73 72 74 75 75 75 75 75 75 76 75 75 74 73 73 73 73 73 73 72 72 73 73 74 73 71 70 71 73 73 71
19 26 51 50 55 54 54 59 59 59 58 57 58 58 59 61 61 61 62 64 64 66 65 66 56 54 53 52 52 51 52 53 54 57 59 61 63 64 65 65 66 66 67 67 68 68 69 70 70 70 71 71 71 71 71 70 71 72 72 72 72 72 72 73 72 73 73 73 74 75 75 75 76 75 75 75 76 75 74 73 74 73 73 74 72 71 71 73 73 73 73 75 70 68 69 69 74
18 18 42 48 55 52 55 57 58 59 60 59 58 57 57 59 59 60 62 64 64 65 66 64 65 66 64 64 60 53 52 52 54 57 59 61 63 63 64 65 65 65 66 67 67 68 69 69 70 70 71 71 71 73 71 71 73 72 73 73 74 73 74 73 72 72 73 74 74 74 75 75 76 75 75 75 76 74 74 74 74 74 73 74 73 71 72 73 73 73 73 73 71 68 68 69 70
14 14 23 47 55 54 57 56 55 55 55 58 55 50 52 57 59 59 61 62 62 64 64 63 64 64 64 62 60 59 55 52 54 57 59 61 62 63 64 65 65 65 66 66 67 68 69 69 70 70 71 71 71 72 71 72 72 72 72 72 71 70 71 71 71 71 72 74 74 75 75 76 76 75 75 75 75 76 74 74 74 74 73 74 75 73 72 73 73 74 73 73 73 72 69 68 67
14 13 14 36 53 56 56 55 54 51 50 55 57 49 46 56 57 59 60 61 61 62 63 63 64 64 64 64 63 58 54 51 54 57 59 60 61 62 63 64 65 65 65 67 67 68 69 69 70 70 70 71 71 72 72 73 71 71 71 71 71 71 70 70 71 72 73 74 75 75 75 75 75 75 75 75 75 76 75 74 74 74 74 74 75 73 73 73 73 74 74 73 73 74 71 69 68
14 15 22 44 54 56 56 55 53 51 54 56 57 53 48 48 55 59 60 59 60 60 61 62 63 64 64 65 65 64 55 48 53 57 59 60 61 61 62 64 64 64 65 66 67 68 69 70 70 70 70 71 71 72 72 72 71 71 71 71 72 71 70 70 71 72 74 75 74 74 75 75 75 75 75 74 75 76 75 75 74 74 74 75 75 73 73 73 74 74 75 74 73 74 73 71 68
16 33 43 53 54 55 55 54 51 52 52 51 54 54 48 48 54 59 59 57 58 59 60 61 61 63 63 65 66 66 65 52 52 56 58 59 60 61 62 63 64 64 65 66 67 68 69 70 70 70 70 71 71 71 71 72 72 71 71 71 71 71 71 71 72 74 74 75 73 73 74 75 75 75 74 74 75 76 77 75 74 74 74 74 76 75 74 74 74 73 73 73 72 72 72 72 70
20 52 54 54 55 55 54 50 51 51 48 47 51 53 46 47 54 55 57 57 57 59 61 62 61 62 63 63 65 67 66 65 52 56 58 59 60 61 62 63 64 64 65 67 66 68 69 70 70 70 70 70 70 71 72 71 71 72 71 71 71 71 72 70 71 72 72 73 73 73 74 74 75 75 74 75 75 75 77 76 75 75 74 75 76 74 73 73 73 73 73 73 72 72 73 73 71
50 53 53 52 52 51 53 51 51 47 42 45 49 51 47 44 52 54 54 54 58 60 62 63 62 63 64 64 65 67 67 66 58 54 57 59 60 61 62 62 63 63 64 66 66 68 69 69 70 69 70 70 70 70 71 71 71 71 71 71 70 70 71 70 70 70 71 72 72 72 73 74 74 74 74 75 75 75 76 77 76 75 75 76 76 75 73 74 73 74 74 73 73 72 71 73 73
50 46 52 49 49 46 49 48 51 42 41 44 48 50 48 41 46 54 55 58 59 61 60 61 62 63 63 64 66 66 66 68 67 54 56 58 60 61 61 62 62 62 64 65 66 68 69 69 69 69 69 70 70 70 71 71 71 71 71 71 70 70 71 70 70 70 71 72 72 72 72 73 73 74 73 74 75 75 76 76 76 75 75 74 75 75 74 74 74 74 73 72 72 73 72 73 71
46 49 49 48 44 45 42 45 43 38 37 38 49 49 47 48 51 56 56 56 59 59 61 62 62 62 63 63 66 66 68 69 68 61 56 58 59 60 61 61 62 62 63 65 66 67 69 69 69 69 69 70 69 71 71 71 71 71 71 70 70 71 71 71 70 70 71 72 72 72 72 72 72 73 73 74 74 75 76 75 75 74 74 75 75 74 74 74 73 74 73 73 73 72 71 72 71
47 47 45 42 40 38 35 39 38 36 45 48 49 49 46 50 54 59 59 60 63 61 61 64 64 64 64 65 66 67 68 67 66 65 56 58 59 60 61 61 62 62 63 65 66 67 68 68 69 68 69 70 69 71 70 70 71 71 71 71 70 72 71 71 71 70 71 72 72 72 72 73 73 73 73 73 74 75 76 75 75 75 74 74 75 74 74 74 74 73 73 72 72 72 72 72 72
44 46 43 42 38 34 33 37 36 35 44 46 50 46 43 48 52 59 62 62 63 64 64 63 64 65 65 68 68 68 67 66 66 65 59 59 59 60 60 61 62 62 63 65 66 66 68 68 68 69 68 70 69 70 70 70 71 71 71 72 71 72 71 72 71 71 71 72 73 72 73 73 73 73 73 74 75 74 75 75 75 74 74 74 74 74 75 74 75 74 74 73 73 73 72 73 72
26 33 36 38 38 36 33 37 37 44 44 44 48 48 52 53 57 60 62 61 62 63 64 66 65 65 66 66 67 67 67 67 66 66 66 66 65 64 61 61 61 62 63 64 66 66 67 68 68 68 68 69 69 71 70 70 70 71 71 71 71 72 73 72 72 73 72 72 73 73 73 73 73 73 73 74 74 74 74 74 75 75 74 74 74 74 74 74 75 74 73 73 72 75 72 72 72
26 28 28 31 33 35 38 45 46 46 46 46 51 50 53 55 58 58 60 61 61 62 63 64 65 65 65 65 66 67 67 67 67 66 67 69 68 68 63 61 61 62 63 64 66 66 67 68 68 68 69 70 69 70 70 70 70 71 71 71 72 72 72 72 72 72 73 73 73 73 73 73 73 73 73 74 74 74 73 73 74 74 75 74 74 75 75 75 74 75 74 72 72 73 73 72 72
24 28 27 29 27 32 35 39 40 41 42 46 49 47 49 51 48 58 58 59 59 60 61 63 65 64 63 64 66 67 67 67 68 68 69 69 69 69 69 62 62 62 63 64 66 66 67 67 68 68 69 69 69 70 70 71 70 70 71 71 71 72 72 72 72 72 73 73 73 73 73 74 74 74 74 73 74 74 73 76 73 74 75 75 75 75 75 75 75 74 74 73 73 73 73 73 73
25 22 22 24 27 26 29 41 37 37 40 43 47 48 49 50 51 56 57 58 58 58 60 62 63 64 64 64 66 67 68 68 68 68 68 69 69 69 68 68 63 62 64 64 66 67 67 67 68 68 68 70 69 69 70 71 71 71 71 71 71 72 72 72 72 72 73 73 73 73 73 73 74 74 75 74 74 74 73 74 74 74 74 75 75 75 75 75 75 74 74 74 74 74 73 73 73
22 29 25 28 27 29 24 30 39 41 41 43 43 48 45 50 52 55 56 58 58 58 59 60 62 63 64 64 65 66 67 68 68 69 69 69 70 69 69 69 68 66 63 65 66 67 67 67 69 68 68 70 70 69 71 71 71 71 71 72 71 72 72 72 72 72 72 73 73 73 73 73 73 74 74 74 73 73 74 73 74 74 74 75 75 75 75 75 75 74 74 74 74 74 73 72 73
21 22 21 20 28 28 22 29 42 41 43 42 41 40 44 50 55 58 58 58 58 58 58 60 61 62 64 64 65 66 66 67 68 68 69 70 70 70 70 71 71 71 70 67 67 67 67 68 69 69 68 70 71 70 70 71 72 72 72 72 72 72 72 73 72 72 72 72 72 73 73 73 74 74 74 74 74 73 73 73 73 74 74 74 74 74 75 75 74 74 74 73 73 74 74 73 73
19 19 21 20 20 20 20 20 36 43 42 38 39 37 47 54 58 58 58 58 57 59 59 60 61 62 63 64 65 66 66 67 68 69 70 70 70 71 71 71 70 70 69 67 68 68 69 68 69 70 70 70 71 71 71 71 72 72 71 72 72 72 72 72 72 72 72 71 71 72 72 73 73 73 74 73 74 74 74 74 73 73 74 74 74 74 74 75 74 74 74 75 74 73 73 73 73